When you browse on this site, cookies collect data to enhance your experience and personalize the content and advertising you see.
Visit our Privacy Policy to learn more. By continuing to use the site, you agree to this use of cookies and data.
  • In Hungary
  • List of Countries
  • For 7 days
  • Water Temperature
  • Satellite Maps
  • Weather Map
  • News
  • Weather Widgets
  • user-avatar
    Login

    Hourly Weather Beringen

    Today, 20 January, Sunday

    Time Temperature Precipitation Wind Pressure Humidity
    00:00 -3°C° 0 mm 2 mps 757 mmHg 69%
    01:00 -3°C° 0 mm 2 mps 757 mmHg 69%
    02:00 -3°C° 0 mm 2 mps 757 mmHg 68%
    03:00 -3°C° 0 mm 2 mps 757 mmHg 67%
    04:00 -3°C° 0 mm 2 mps 757 mmHg 67%
    05:00 -3°C° 0 mm 2 mps 757 mmHg 66%
    06:00 -3°C° 0 mm 2 mps 758 mmHg 66%
    07:00 -3°C° 0 mm 2 mps 758 mmHg 64%
    08:00 -2°C° 0 mm 2 mps 758 mmHg 62%
    09:00 -2°C° 0 mm 3 mps 759 mmHg 60%
    10:00 -1°C° 0 mm 3 mps 759 mmHg 56%
    11:00 0°C° 0 mm 3 mps 759 mmHg 52%
    12:00 +1°C° 0 mm 3 mps 759 mmHg 47%
    13:00 +1°C° 0 mm 3 mps 759 mmHg 49%
    14:00 +1°C° 0 mm 3 mps 760 mmHg 50%
    15:00 +2°C° 0 mm 2 mps 760 mmHg 52%
    16:00 +1°C° 0 mm 2 mps 760 mmHg 55%
    17:00 -1°C° 0 mm 2 mps 761 mmHg 58%
    18:00 -2°C° 0 mm 2 mps 761 mmHg 61%
    19:00 -2°C° 0 mm 2 mps 762 mmHg 60%
    20:00 -3°C° 0 mm 2 mps 762 mmHg 60%
    21:00 -1°C° 0 mm 1 mps 763 mmHg 59%
    22:00 -1°C° 0 mm 1 mps 763 mmHg 59%
    23:00 -1°C° 0 mm 1 mps 764 mmHg 58%

    Tomorrow, 21 January, Monday

    Time Temperature Precipitation Wind Pressure Humidity
    00:00 -1°C° 0 mm 1 mps 764 mmHg 58%
    01:00 -1°C° 0 mm 1 mps 764 mmHg 58%
    02:00 -1°C° 0 mm 1 mps 764 mmHg 58%
    03:00 -2°C° 0 mm 0 mps 764 mmHg 58%
    04:00 -2°C° 0 mm 0 mps 764 mmHg 58%
    05:00 -2°C° 0 mm 0 mps 764 mmHg 58%
    06:00 -2°C° 0 mm 0 mps 764 mmHg 58%
    07:00 -2°C° 0 mm 0 mps 765 mmHg 56%
    08:00 -1°C° 0 mm 0 mps 765 mmHg 54%
    09:00 -1°C° 0 mm 0 mps 765 mmHg 52%
    10:00 0°C° 0 mm 0 mps 765 mmHg 48%
    11:00 +2°C° 0 mm 1 mps 764 mmHg 45%
    12:00 +3°C° 0 mm 1 mps 764 mmHg 41%
    13:00 +3°C° 0 mm 1 mps 764 mmHg 43%
    14:00 +3°C° 0 mm 1 mps 763 mmHg 46%
    15:00 +2°C° 0 mm 1 mps 763 mmHg 48%
    16:00 +1°C° 0 mm 1 mps 762 mmHg 50%
    17:00 0°C° 0 mm 1 mps 762 mmHg 53%
    18:00 0°C° 0 mm 1 mps 762 mmHg 55%
    19:00 -3°C° 0 mm 2 mps 761 mmHg 56%
    20:00 -3°C° 0 mm 2 mps 761 mmHg 56%
    21:00 -4°C° 0 mm 3 mps 761 mmHg 56%
    22:00 -4°C° 0 mm 3 mps 760 mmHg 55%
    23:00 -4°C° 0 mm 3 mps 759 mmHg 55%

    Day after tomorrow, 22 January, Tuesday

    Time Temperature Precipitation Wind Pressure Humidity
    00:00 -4°C° 0 mm 4 mps 758 mmHg 54%
    01:00 -3°C° 0 mm 4 mps 757 mmHg 53%
    02:00 -4°C° 0 mm 5 mps 756 mmHg 52%
    03:00 -4°C° 0 mm 5 mps 755 mmHg 51%
    04:00 -3°C° 0 mm 6 mps 754 mmHg 51%
    05:00 -3°C° 0 mm 6 mps 753 mmHg 50%
    06:00 -3°C° 0 mm 6 mps 752 mmHg 50%
    07:00 -3°C° 0.1 mm 6 mps 751 mmHg 53%
    08:00 -3°C° 0.1 mm 7 mps 750 mmHg 56%
    09:00 -2°C° 0.1 mm 7 mps 749 mmHg 59%
    10:00 -2°C° 0.8 mm 7 mps 749 mmHg 68%
    11:00 -3°C° 0.8 mm 6 mps 748 mmHg 76%
    12:00 -3°C° 0.8 mm 6 mps 748 mmHg 85%
    13:00 -2°C° 0.3 mm 5 mps 747 mmHg 85%
    14:00 -1°C° 0.3 mm 4 mps 747 mmHg 85%
    15:00 -1°C° 0.3 mm 4 mps 746 mmHg 85%
    16:00 -1°C° 0.5 mm 3 mps 746 mmHg 88%
    17:00 -1°C° 0.5 mm 3 mps 746 mmHg 91%
    18:00 -1°C° 0.5 mm 2 mps 746 mmHg 94%
    19:00 -1°C° 0.6 mm 2 mps 746 mmHg 95%
    20:00 +1°C° 0.6 mm 1 mps 746 mmHg 95%
    21:00 +1°C° 0.6 mm 1 mps 746 mmHg 95%
    22:00 +1°C° 0.4 mm 1 mps 746 mmHg 95%
    23:00 +1°C° 0.4 mm 1 mps 746 mmHg 95%

    23 January, Wednesday

    Time Temperature Precipitation Wind Pressure Humidity
    00:00 +1°C° 0.4 mm 1 mps 746 mmHg 95%
    01:00 +1°C° 0.2 mm 1 mps 746 mmHg 95%
    02:00 +1°C° 0.2 mm 1 mps 746 mmHg 95%
    03:00 +1°C° 0.2 mm 1 mps 746 mmHg 94%
    04:00 0°C° 0 mm 1 mps 746 mmHg 94%
    05:00 0°C° 0 mm 1 mps 747 mmHg 94%
    06:00 -1°C° 0 mm 1 mps 747 mmHg 94%
    07:00 0°C° 0 mm 1 mps 747 mmHg 93%
    08:00 0°C° 0 mm 1 mps 748 mmHg 93%
    09:00 0°C° 0 mm 1 mps 748 mmHg 92%
    10:00 +1°C° 0 mm 1 mps 749 mmHg 92%
    11:00 +1°C° 0 mm 1 mps 749 mmHg 93%
    12:00 +2°C° 0 mm 1 mps 749 mmHg 93%
    13:00 +2°C° 0 mm 1 mps 749 mmHg 93%
    14:00 +2°C° 0 mm 1 mps 750 mmHg 93%
    15:00 +2°C° 0 mm 1 mps 750 mmHg 93%
    16:00 +1°C° 0 mm 1 mps 750 mmHg 93%
    17:00 0°C° 0 mm 1 mps 751 mmHg 93%
    18:00 0°C° 0 mm 1 mps 752 mmHg 93%
    19:00 -1°C° 0 mm 1 mps 752 mmHg 92%
    20:00 -1°C° 0 mm 1 mps 753 mmHg 92%
    21:00 -1°C° 0 mm 1 mps 753 mmHg 92%
    22:00 -1°C° 0 mm 1 mps 753 mmHg 92%
    23:00 -1°C° 0 mm 1 mps 754 mmHg 92%

    24 January, Thursday

    Time Temperature Precipitation Wind Pressure Humidity
    00:00 -1°C° 0 mm 1 mps 754 mmHg 93%
    01:00 -1°C° 0 mm 1 mps 754 mmHg 93%
    02:00 -2°C° 0 mm 2 mps 754 mmHg 94%
    03:00 -2°C° 0 mm 2 mps 755 mmHg 94%
    04:00 -1°C° 0 mm 2 mps 755 mmHg 94%
    05:00 -1°C° 0 mm 2 mps 755 mmHg 93%
    06:00 -1°C° 0 mm 2 mps 755 mmHg 93%
    07:00 -1°C° 0 mm 2 mps 755 mmHg 92%
    08:00 -1°C° 0 mm 2 mps 755 mmHg 91%
    09:00 -1°C° 0 mm 2 mps 756 mmHg 89%
    10:00 +1°C° 0 mm 2 mps 756 mmHg 89%
    11:00 +1°C° 0 mm 2 mps 756 mmHg 89%
    12:00 +2°C° 0 mm 2 mps 756 mmHg 89%
    13:00 +1°C° 0 mm 2 mps 756 mmHg 89%
    14:00 +1°C° 0 mm 2 mps 756 mmHg 89%
    15:00 +2°C° 0 mm 1 mps 756 mmHg 90%
    16:00 +1°C° 0 mm 1 mps 757 mmHg 90%
    17:00 0°C° 0 mm 1 mps 757 mmHg 91%
    18:00 -1°C° 0 mm 1 mps 757 mmHg 91%
    19:00 -1°C° 0 mm 1 mps 758 mmHg 92%
    20:00 -1°C° 0 mm 1 mps 758 mmHg 92%
    21:00 -1°C° 0 mm 1 mps 759 mmHg 92%
    22:00 -1°C° 0 mm 1 mps 759 mmHg 92%
    23:00 -2°C° 0 mm 1 mps 760 mmHg 92%

    25 January, Friday

    Time Temperature Precipitation Wind Pressure Humidity
    00:00 -2°C° 0 mm 1 mps 760 mmHg 93%
    01:00 -2°C° 0 mm 1 mps 760 mmHg 93%
    02:00 -2°C° 0 mm 1 mps 760 mmHg 93%
    03:00 -3°C° 0 mm 0 mps 761 mmHg 93%
    04:00 -3°C° 0 mm 0 mps 761 mmHg 93%
    05:00 -3°C° 0 mm 0 mps 762 mmHg 93%
    06:00 -3°C° 0 mm 0 mps 762 mmHg 93%
    07:00 -2°C° 0 mm 1 mps 762 mmHg 93%
    08:00 -1°C° 0 mm 1 mps 763 mmHg 92%
    09:00 -1°C° 0 mm 1 mps 763 mmHg 91%
    10:00 0°C° 0 mm 1 mps 764 mmHg 90%
    11:00 +1°C° 0 mm 1 mps 764 mmHg 88%
    12:00 +2°C° 0 mm 1 mps 764 mmHg 87%
    13:00 +2°C° 0 mm 1 mps 764 mmHg 88%
    14:00 +2°C° 0 mm 1 mps 764 mmHg 89%
    15:00 +1°C° 0 mm 1 mps 764 mmHg 91%
    16:00 -1°C° 0 mm 2 mps 765 mmHg 91%
    17:00 -2°C° 0 mm 2 mps 765 mmHg 91%
    18:00 -3°C° 0 mm 2 mps 765 mmHg 91%
    19:00 -3°C° 0 mm 2 mps 765 mmHg 91%
    20:00 -3°C° 0 mm 2 mps 765 mmHg 90%
    21:00 -4°C° 0 mm 3 mps 765 mmHg 89%
    22:00 -4°C° 0 mm 3 mps 765 mmHg 87%
    23:00 -4°C° 0 mm 3 mps 765 mmHg 86%
    Show more